| time (UTC) | temp C | wind direction | speed KPH | gust KPH | rain 1hr cm | rain 24hr cm | rain mn cm | humidity % | barometer mb |
| 20260904000940 | 63 | 161 | 8.0 | 17.7 | 0.00 | 0.00 | 0.00 | 100 | 1011.0 |
| 20260904000441 | 63 | 143 | 6.4 | 17.7 | 0.00 | 0.00 | 0.00 | 100 | 1010.9 |
| 20260904000212 | 63 | 123 | 9.7 | 20.9 | 0.00 | 0.00 | 0.00 | 100 | 1010.9 |
| 20260903235438 | 63 | 140 | 9.7 | 20.9 | 0.00 | 0.00 | 0.00 | 100 | 1010.8 |
| 20260903234939 | 63 | 129 | 8.0 | 20.9 | 0.00 | 0.00 | 0.00 | 100 | 1010.8 |
| 20260903234438 | 63 | 205 | 9.7 | 20.9 | 0.00 | 0.00 | 0.00 | 100 | 1010.8 |
| 20260903234209 | 63 | 151 | 8.0 | 22.5 | 0.00 | 0.00 | 0.00 | 100 | 1010.9 |
| 20260903233443 | 63 | 174 | 8.0 | 17.7 | 0.00 | 0.00 | 0.00 | 100 | 1010.8 |
| 20260903233439 | 63 | 150 | 9.7 | 22.5 | 0.00 | 0.00 | 0.00 | 100 | 1010.8 |
| 20260903232440 | 63 | 120 | 9.7 | 20.9 | 0.00 | 0.00 | 0.00 | 100 | 1010.7 |
| 20260903231938 | 63 | 133 | 9.7 | 20.9 | 0.00 | 0.00 | 0.00 | 100 | 1010.6 |
| 20260903231436 | 63 | 130 | 6.4 | 17.7 | 0.00 | 0.00 | 0.00 | 100 | 1010.6 |
| 20260903231207 | 63 | 187 | 9.7 | 20.9 | 0.00 | 0.00 | 0.00 | 100 | 1010.5 |
| 20260903230707 | 63 | 123 | 6.4 | 20.9 | 0.00 | 0.00 | 0.00 | 100 | 1010.4 |
| 20260903225936 | 63 | 130 | 9.7 | 24.1 | 0.00 | 0.00 | 0.00 | 100 | 1010.3 |
| 20260903225435 | 63 | 61 | 12.9 | 24.1 | 0.00 | 0.00 | 0.00 | 100 | 1010.3 |
| 20260903224934 | 64 | 163 | 4.8 | 19.3 | 0.00 | 0.00 | 0.00 | 100 | 1010.2 |
| 20260903224434 | 64 | 132 | 9.7 | 24.1 | 0.00 | 0.00 | 0.00 | 100 | 1010.0 |
| 20260903223935 | 64 | 160 | 9.7 | 20.9 | 0.00 | 0.00 | 0.00 | 100 | 1009.7 |
| 20260903223931 | 64 | 118 | 11.3 | 24.1 | 0.00 | 0.00 | 0.00 | 100 | 1009.9 |
| 20260903223202 | 64 | 160 | 8.0 | 20.9 | 0.00 | 0.00 | 0.00 | 100 | 1009.7 |
| 20260903222430 | 64 | 161 | 8.0 | 22.5 | 0.00 | 0.00 | 0.00 | 100 | 1009.9 |
| 20260903221930 | 64 | 127 | 8.0 | 22.5 | 0.00 | 0.00 | 0.00 | 100 | 1009.9 |
| 20260903221430 | 64 | 150 | 9.7 | 20.9 | 0.00 | 0.00 | 0.00 | 100 | 1009.7 |
| 20260903220929 | 64 | 158 | 6.4 | 20.9 | 0.00 | 0.00 | 0.00 | 100 | 1009.7 |
| 20260903220430 | 64 | 144 | 8.0 | 19.3 | 0.00 | 0.00 | 0.00 | 100 | 1009.9 |
| 20260903215926 | 64 | 101 | 9.7 | 19.3 | 0.00 | 0.00 | 0.00 | 100 | 1009.9 |
| 20260903215424 | 64 | 158 | 8.0 | 14.5 | 0.00 | 0.00 | 0.00 | 100 | 1009.9 |
| 20260903215156 | 64 | 170 | 6.4 | 17.7 | 0.00 | 0.00 | 0.00 | 100 | 1009.9 |
| 20260903214425 | 64 | 150 | 12.9 | 17.7 | 0.00 | 0.00 | 0.00 | 100 | 1009.9 |
| 20260903213924 | 64 | 108 | 8.0 | 12.9 | 0.00 | 0.00 | 0.00 | 100 | 1010.0 |
| 20260903213655 | 65 | 106 | 0.0 | 20.9 | 0.00 | 0.00 | 0.00 | 100 | 1010.0 |
| 20260903212916 | 65 | 189 | 8.0 | 20.9 | 0.00 | 0.00 | 0.00 | 100 | 1010.2 |
| 20260903212416 | 65 | 130 | 8.0 | 17.7 | 0.00 | 0.00 | 0.00 | 100 | 1010.2 |
| 20260903212146 | 64 | 116 | 8.0 | 17.7 | 0.00 | 0.00 | 0.00 | 100 | 1010.2 |
| 20260903211412 | 64 | 167 | 8.0 | 17.7 | 0.00 | 0.00 | 0.00 | 100 | 1010.2 |
| 20260903210903 | 64 | 143 | 8.0 | 17.7 | 0.00 | 0.00 | 0.00 | 100 | 1010.2 |
| 20260903210401 | 65 | 154 | 1.6 | 16.1 | 0.00 | 0.00 | 0.00 | 100 | 1010.4 |
| 20260903205902 | 65 | 157 | 0.0 | 12.9 | 0.00 | 0.00 | 0.00 | 100 | 1010.4 |
| 20260903205401 | 65 | 115 | 4.8 | 11.3 | 0.00 | 0.00 | 0.00 | 100 | 1010.5 |
| 20260903204903 | 64 | 129 | 6.4 | 11.3 | 0.00 | 0.00 | 0.00 | 100 | 1010.5 |
| 20260903204632 | 64 | 140 | 3.2 | 12.9 | 0.00 | 0.00 | 0.00 | 100 | 1010.5 |
| 20260903204356 | 64 | 140 | 4.8 | 12.9 | 0.00 | 0.00 | 0.00 | 100 | 1010.5 |
| 20260903203330 | 65 | 129 | 4.8 | 11.3 | 0.00 | 0.00 | 0.00 | 100 | 1010.7 |
| 20260903202830 | 64 | 26 | 3.2 | 9.7 | 0.00 | 0.00 | 0.00 | 100 | 1010.8 |
| 20260903202330 | 65 | 104 | 6.4 | 9.7 | 0.00 | 0.00 | 0.00 | 100 | 1010.9 |
| 20260903201829 | 65 | 160 | 0.0 | 14.5 | 0.00 | 0.00 | 0.00 | 100 | 1010.9 |
| 20260903201329 | 65 | 123 | 0.0 | 14.5 | 0.00 | 0.00 | 0.00 | 100 | 1011.0 |
| 20260903200825 | 65 | 168 | 6.4 | 14.5 | 0.00 | 0.00 | 0.00 | 100 | 1010.9 |
| 20260903200326 | 65 | 123 | 0.0 | 9.7 | 0.00 | 0.00 | 0.00 | 100 | 1011.0 |
| 20260903195819 | 65 | 147 | 0.0 | 14.5 | 0.00 | 0.00 | 0.00 | 100 | 1011.1 |
| 20260903195316 | 65 | 189 | 3.2 | 14.5 | 0.00 | 0.00 | 0.00 | 100 | 1011.2 |
| 20260903194815 | 64 | 187 | 6.4 | 11.3 | 0.00 | 0.00 | 0.00 | 100 | 1011.2 |
| 20260903194316 | 64 | 168 | 0.0 | 17.7 | 0.00 | 0.00 | 0.00 | 100 | 1011.2 |
| 20260903193811 | 64 | 168 | 4.8 | 17.7 | 0.00 | 0.00 | 0.00 | 100 | 1011.3 |
| 20260903193303 | 64 | 109 | 6.4 | 16.1 | 0.00 | 0.00 | 0.00 | 100 | 1011.4 |
| 20260903192803 | 64 | 109 | 3.2 | 16.1 | 0.00 | 0.00 | 0.00 | 100 | 1011.4 |
| 20260903192529 | 65 | 150 | 6.4 | 11.3 | 0.00 | 0.00 | 0.00 | 100 | 1011.5 |
| 20260903191757 | 65 | 209 | 0.0 | 14.5 | 0.00 | 0.00 | 0.00 | 100 | 1011.6 |
| 20260903191257 | 65 | 184 | 6.4 | 16.1 | 0.00 | 0.00 | 0.00 | 100 | 1011.8 |
| 20260903190756 | 65 | 160 | 6.4 | 16.1 | 0.00 | 0.00 | 0.00 | 100 | 1011.8 |
| 20260903190257 | 65 | 97 | 3.2 | 14.5 | 0.00 | 0.00 | 0.00 | 100 | 1011.9 |
| 20260903185756 | 65 | 136 | 3.2 | 14.5 | 0.00 | 0.00 | 0.00 | 100 | 1012.0 |
| 20260903185250 | 65 | 168 | 3.2 | 14.5 | 0.00 | 0.00 | 0.00 | 100 | 1012.1 |
| 20260903184746 | 65 | 154 | 1.6 | 14.5 | 0.00 | 0.00 | 0.00 | 100 | 1012.1 |
| 20260903184247 | 65 | 146 | 0.0 | 12.9 | 0.00 | 0.00 | 0.00 | 100 | 1012.2 |
| 20260903183743 | 65 | 189 | 3.2 | 8.0 | 0.00 | 0.00 | 0.00 | 100 | 1012.3 |
| 20260903183243 | 64 | 189 | 3.2 | 9.7 | 0.00 | 0.00 | 0.00 | 100 | 1012.5 |
| 20260903182743 | 64 | 151 | 0.0 | 9.7 | 0.00 | 0.00 | 0.00 | 100 | 1012.6 |
| 20260903182240 | 64 | 156 | 6.4 | 9.7 | 0.00 | 0.00 | 0.00 | 100 | 1012.8 |
| 20260903181723 | 64 | 136 | 1.6 | 11.3 | 0.00 | 0.00 | 0.00 | 100 | 1012.9 |
| 20260903181210 | 64 | 147 | 6.4 | 11.3 | 0.00 | 0.00 | 0.00 | 100 | 1013.0 |
| 20260903180707 | 64 | 168 | 0.0 | 20.9 | 0.00 | 0.00 | 0.00 | 100 | 1013.0 |
| 20260903180201 | 65 | 146 | 6.4 | 22.5 | 0.00 | 0.00 | 0.00 | 100 | 1013.0 |
| 20260903175701 | 65 | 122 | 8.0 | 16.1 | 0.00 | 0.00 | 0.00 | 100 | 1012.9 |
| 20260903175201 | 64 | 164 | 3.2 | 14.5 | 0.00 | 0.00 | 0.00 | 100 | 1013.1 |
| 20260903174700 | 64 | 156 | 1.6 | 16.1 | 0.00 | 0.00 | 0.00 | 100 | 1013.1 |
| 20260903174200 | 65 | 180 | 4.8 | 16.1 | 0.00 | 0.00 | 0.00 | 100 | 1013.1 |
| 20260903173700 | 64 | 154 | 4.8 | 14.5 | 0.00 | 0.00 | 0.00 | 100 | 1013.2 |
| 20260903173200 | 64 | 188 | 9.7 | 14.5 | 0.00 | 0.00 | 0.00 | 100 | 1013.2 |
| 20260903172657 | 64 | 140 | 4.8 | 16.1 | 0.00 | 0.00 | 0.00 | 100 | 1013.2 |
| 20260903172156 | 64 | 203 | 9.7 | 17.7 | 0.00 | 0.00 | 0.00 | 100 | 1013.4 |
| 20260903171656 | 63 | 106 | 4.8 | 17.7 | 0.00 | 0.00 | 0.00 | 100 | 1013.4 |
| 20260903171155 | 63 | 178 | 4.8 | 16.1 | 0.00 | 0.00 | 0.00 | 100 | 1013.4 |
| 20260903170654 | 63 | 165 | 9.7 | 16.1 | 0.00 | 0.00 | 0.00 | 100 | 1013.4 |
| 20260903170154 | 63 | 185 | 8.0 | 14.5 | 0.00 | 0.00 | 0.00 | 100 | 1013.5 |
| 20260903165653 | 63 | 147 | 6.4 | 12.9 | 0.00 | 0.00 | 0.00 | 100 | 1013.5 |
| 20260903165153 | 63 | 133 | 3.2 | 14.5 | 0.00 | 0.00 | 0.00 | 100 | 1013.5 |
| 20260903164655 | 63 | 233 | 1.6 | 16.1 | 0.00 | 0.00 | 0.00 | 100 | 1013.5 |
| 20260903164651 | 63 | 192 | 8.0 | 16.1 | 0.00 | 0.00 | 0.00 | 100 | 1013.5 |
| 20260903163646 | 63 | 109 | 0.0 | 16.1 | 0.00 | 0.00 | 0.00 | 100 | 1013.5 |
| 20260903163242 | 63 | 185 | 9.7 | 16.1 | 0.00 | 0.00 | 0.00 | 100 | 1013.6 |
| 20260903162136 | 63 | 189 | 9.7 | 16.1 | 0.00 | 0.00 | 0.00 | 100 | 1013.5 |
| 20260903161633 | 63 | 220 | 0.0 | 17.7 | 0.00 | 0.00 | 0.00 | 100 | 1013.6 |
| 20260903161134 | 63 | 208 | 11.3 | 17.7 | 0.00 | 0.00 | 0.00 | 100 | 1013.6 |
| 20260903160634 | 63 | 208 | 11.3 | 17.7 | 0.00 | 0.00 | 0.00 | 100 | 1013.6 |
| 20260903160134 | 63 | 189 | 4.8 | 17.7 | 0.00 | 0.00 | 0.00 | 100 | 1013.5 |
| 20260903155633 | 63 | 216 | 11.3 | 17.7 | 0.00 | 0.00 | 0.00 | 100 | 1013.6 |
| 20260903155133 | 63 | 220 | 8.0 | 14.5 | 0.00 | 0.00 | 0.00 | 100 | 1013.6 |
| 20260903154633 | 63 | 168 | 4.8 | 17.7 | 0.00 | 0.00 | 0.00 | 100 | 1013.6 |
| 20260903154132 | 63 | 184 | 9.7 | 17.7 | 0.00 | 0.00 | 0.00 | 100 | 1013.8 |
| 20260903153632 | 63 | 195 | 8.0 | 16.1 | 0.00 | 0.00 | 0.00 | 100 | 1013.8 |
| 20260903153133 | 63 | 199 | 8.0 | 19.3 | 0.00 | 0.00 | 0.00 | 100 | 1013.8 |
| 20260903152633 | 63 | 208 | 8.0 | 22.5 | 0.00 | 0.00 | 0.00 | 100 | 1013.8 |
| 20260903152133 | 63 | 177 | 11.3 | 22.5 | 0.00 | 0.00 | 0.00 | 100 | 1013.8 |
| 20260903151632 | 63 | 188 | 8.0 | 17.7 | 0.00 | 0.00 | 0.00 | 100 | 1013.8 |
| 20260903151403 | 63 | 178 | 9.7 | 19.3 | 0.00 | 0.00 | 0.00 | 100 | 1013.6 |
| 20260903150631 | 63 | 184 | 12.9 | 19.3 | 0.00 | 0.00 | 0.00 | 100 | 1013.6 |
| 20260903150131 | 63 | 174 | 9.7 | 19.3 | 0.00 | 0.00 | 0.00 | 100 | 1013.6 |
| 20260903145632 | 63 | 185 | 8.0 | 19.3 | 0.00 | 0.00 | 0.00 | 100 | 1013.6 |
| 20260903145132 | 62 | 191 | 11.3 | 24.1 | 0.00 | 0.00 | 0.00 | 100 | 1013.8 |
| 20260903144631 | 62 | 170 | 12.9 | 24.1 | 0.00 | 0.00 | 0.00 | 100 | 1013.8 |
| 20260903144402 | 62 | 226 | 14.5 | 22.5 | 0.00 | 0.00 | 0.00 | 100 | 1013.8 |
| 20260903143632 | 62 | 164 | 6.4 | 20.9 | 0.00 | 0.00 | 0.00 | 100 | 1013.8 |
| 20260903143131 | 62 | 191 | 12.9 | 20.9 | 0.00 | 0.00 | 0.00 | 100 | 1013.9 |
| 20260903142630 | 62 | 195 | 11.3 | 22.5 | 0.00 | 0.00 | 0.00 | 100 | 1013.8 |
| 20260903142130 | 62 | 167 | 9.7 | 22.5 | 0.00 | 0.00 | 0.00 | 100 | 1013.8 |
| 20260903141901 | 62 | 180 | 9.7 | 17.7 | 0.00 | 0.00 | 0.00 | 100 | 1013.6 |
| 20260903141131 | 62 | 208 | 8.0 | 14.5 | 0.00 | 0.00 | 0.00 | 100 | 1013.6 |
| 20260903140630 | 62 | 222 | 4.8 | 17.7 | 0.00 | 0.00 | 0.00 | 100 | 1013.6 |
| 20260903140131 | 62 | 223 | 8.0 | 17.7 | 0.00 | 0.00 | 0.00 | 100 | 1013.6 |
| 20260903135631 | 62 | 205 | 6.4 | 22.5 | 0.00 | 0.00 | 0.00 | 100 | 1013.6 |
| 20260903135402 | 62 | 170 | 8.0 | 22.5 | 0.00 | 0.00 | 0.00 | 100 | 1013.6 |
| 20260903134629 | 62 | 203 | 8.0 | 19.3 | 0.00 | 0.00 | 0.00 | 100 | 1013.6 |
| 20260903134130 | 62 | 153 | 8.0 | 14.5 | 0.00 | 0.00 | 0.00 | 100 | 1013.8 |
| 20260903133859 | 62 | 146 | 6.4 | 16.1 | 0.00 | 0.00 | 0.00 | 100 | 1013.8 |
| 20260903133127 | 62 | 120 | 3.2 | 19.3 | 0.00 | 0.00 | 0.00 | 100 | 1013.8 |
| 20260903132856 | 62 | 180 | 9.7 | 19.3 | 0.00 | 0.00 | 0.00 | 100 | 1013.8 |
| 20260903132131 | 62 | 133 | 4.8 | 16.1 | 0.00 | 0.00 | 0.00 | 100 | 1013.9 |
| 20260903132125 | 62 | 180 | 9.7 | 17.7 | 0.00 | 0.00 | 0.00 | 100 | 1013.8 |
| 20260903131126 | 62 | 136 | 6.4 | 16.1 | 0.00 | 0.00 | 0.00 | 100 | 1013.9 |
| 20260903130626 | 62 | 143 | 0.0 | 12.9 | 0.00 | 0.00 | 0.00 | 100 | 1013.8 |
| 20260903130118 | 62 | 118 | 8.0 | 12.9 | 0.00 | 0.00 | 0.00 | 100 | 1013.8 |
| 20260903130114 | 62 | 157 | 3.2 | 14.5 | 0.00 | 0.00 | 0.00 | 100 | 1013.8 |
| 20260903125110 | 62 | 229 | 6.4 | 17.7 | 0.00 | 0.00 | 0.00 | 100 | 1013.6 |
| 20260903124610 | 62 | 184 | 4.8 | 17.7 | 0.00 | 0.00 | 0.00 | 100 | 1013.6 |
| 20260903124110 | 62 | 154 | 8.0 | 16.1 | 0.00 | 0.00 | 0.00 | 100 | 1013.6 |
| 20260903123609 | 62 | 129 | 1.6 | 9.7 | 0.00 | 0.00 | 0.00 | 100 | 1013.6 |
| 20260903123108 | 62 | 150 | 0.0 | 9.7 | 0.00 | 0.00 | 0.00 | 100 | 1013.6 |
| 20260903122607 | 62 | 206 | 0.0 | 12.9 | 0.00 | 0.00 | 0.00 | 100 | 1013.5 |
| 20260903122056 | 62 | 192 | 4.8 | 12.9 | 0.00 | 0.00 | 0.00 | 100 | 1013.5 |
| 20260903121556 | 62 | 136 | 0.0 | 12.9 | 0.00 | 0.00 | 0.00 | 100 | 1013.4 |
| 20260903121057 | 62 | 192 | 1.6 | 12.9 | 0.00 | 0.00 | 0.00 | 100 | 1013.4 |
| 20260903120557 | 62 | 123 | 4.8 | 9.7 | 0.00 | 0.00 | 0.00 | 100 | 1013.4 |
| 20260903120057 | 62 | 163 | 0.0 | 14.5 | 0.00 | 0.00 | 0.00 | 100 | 1013.4 |
| 20260903115536 | 62 | 153 | 6.4 | 14.5 | 0.00 | 0.00 | 0.00 | 100 | 1013.3 |
| 20260903115531 | 62 | 126 | 3.2 | 12.9 | 0.00 | 0.00 | 0.00 | 100 | 1013.3 |
| 20260903114756 | 62 | 143 | 0.0 | 0.0 | 0.00 | 0.00 | 0.00 | 100 | 1013.3 |
| 20260903114011 | 62 | 143 | 0.0 | 0.0 | 0.00 | 0.00 | 0.00 | 100 | 1013.2 |
| 20260903113510 | 62 | 143 | 0.0 | 0.0 | 0.00 | 0.00 | 0.00 | 100 | 1013.3 |
| 20260903113005 | 62 | 143 | 0.0 | 8.0 | 0.00 | 0.00 | 0.00 | 100 | 1013.2 |
| 20260903112456 | 62 | 143 | 0.0 | 8.0 | 0.00 | 0.00 | 0.00 | 100 | 1013.2 |
| 20260903111956 | 62 | 136 | 3.2 | 14.5 | 0.00 | 0.00 | 0.00 | 100 | 1013.1 |
| 20260903111457 | 62 | 136 | 1.6 | 14.5 | 0.00 | 0.00 | 0.00 | 100 | 1013.1 |
| 20260903111224 | 62 | 153 | 1.6 | 12.9 | 0.00 | 0.00 | 0.00 | 100 | 1013.1 |
| 20260903110442 | 62 | 222 | 4.8 | 12.9 | 0.00 | 0.00 | 0.00 | 100 | 1013.0 |
| 20260903105937 | 62 | 154 | 1.6 | 14.5 | 0.00 | 0.00 | 0.00 | 100 | 1013.0 |
| 20260903105427 | 62 | 151 | 4.8 | 14.5 | 0.00 | 0.00 | 0.00 | 100 | 1013.0 |
| 20260903104927 | 62 | 201 | 0.0 | 9.7 | 0.00 | 0.00 | 0.00 | 100 | 1013.0 |
| 20260903104416 | 62 | 158 | 1.6 | 9.7 | 0.00 | 0.00 | 0.00 | 100 | 1012.9 |
| 20260903103913 | 62 | 154 | 3.2 | 12.9 | 0.00 | 0.00 | 0.00 | 100 | 1012.9 |
| 20260903103412 | 62 | 187 | 1.6 | 16.1 | 0.00 | 0.00 | 0.00 | 100 | 1012.9 |
| 20260903102910 | 62 | 177 | 0.0 | 16.1 | 0.00 | 0.00 | 0.00 | 100 | 1012.8 |
| 20260903102629 | 62 | 180 | 4.8 | 16.1 | 0.00 | 0.00 | 0.00 | 100 | 1012.8 |
| 20260903101857 | 62 | 170 | 0.0 | 17.7 | 0.00 | 0.00 | 0.00 | 100 | 1012.6 |
| 20260903101615 | 62 | 165 | 4.8 | 17.7 | 0.00 | 0.00 | 0.00 | 100 | 1012.6 |
| 20260903100843 | 62 | 167 | 3.2 | 11.3 | 0.00 | 0.00 | 0.00 | 100 | 1012.6 |
| 20260903100337 | 62 | 178 | 6.4 | 11.3 | 0.00 | 0.00 | 0.00 | 100 | 1012.6 |
| 20260903095838 | 62 | 180 | 1.6 | 11.3 | 0.00 | 0.00 | 0.00 | 100 | 1012.6 |
| 20260903095338 | 62 | 157 | 3.2 | 9.7 | 0.00 | 0.00 | 0.00 | 100 | 1012.6 |
| 20260903094836 | 62 | 123 | 1.6 | 11.3 | 0.00 | 0.00 | 0.00 | 100 | 1012.8 |
| 20260903094323 | 62 | 144 | 1.6 | 12.9 | 0.00 | 0.00 | 0.00 | 100 | 1012.9 |
| 20260903093820 | 62 | 146 | 1.6 | 12.9 | 0.00 | 0.00 | 0.00 | 100 | 1012.9 |
| 20260903093542 | 62 | 158 | 3.2 | 14.5 | 0.00 | 0.00 | 0.00 | 100 | 1013.0 |
| 20260903092804 | 62 | 184 | 6.4 | 14.5 | 0.00 | 0.00 | 0.00 | 100 | 1013.0 |
| 20260903092800 | 62 | 208 | 6.4 | 14.5 | 0.00 | 0.00 | 0.00 | 100 | 1013.0 |
| 20260903091800 | 62 | 153 | 8.0 | 12.9 | 0.00 | 0.00 | 0.00 | 100 | 1013.1 |
| 20260903091300 | 62 | 157 | 1.6 | 12.9 | 0.00 | 0.00 | 0.00 | 100 | 1013.2 |
| 20260903091027 | 62 | 139 | 4.8 | 16.1 | 0.00 | 0.00 | 0.00 | 100 | 1013.2 |
| 20260903090257 | 62 | 160 | 4.8 | 16.1 | 0.00 | 0.00 | 0.00 | 100 | 1013.2 |
| 20260903085758 | 62 | 135 | 1.6 | 16.1 | 0.00 | 0.00 | 0.00 | 100 | 1013.2 |
| 20260903085258 | 62 | 198 | 6.4 | 16.1 | 0.00 | 0.00 | 0.00 | 100 | 1013.2 |
| 20260903084757 | 62 | 178 | 9.7 | 17.7 | 0.00 | 0.00 | 0.00 | 100 | 1013.3 |
| 20260903084256 | 62 | 157 | 9.7 | 17.7 | 0.00 | 0.00 | 0.00 | 100 | 1013.2 |
| 20260903083757 | 62 | 126 | 4.8 | 14.5 | 0.00 | 0.00 | 0.00 | 100 | 1013.2 |
| 20260903083524 | 62 | 184 | 4.8 | 14.5 | 0.00 | 0.00 | 0.00 | 100 | 1013.2 |
| 20260903083015 | 62 | 146 | 6.4 | 14.5 | 0.00 | 0.00 | 0.00 | 100 | 1013.2 |
| 20260903082238 | 62 | 189 | 0.0 | 14.5 | 0.00 | 0.00 | 0.00 | 100 | 1013.2 |
| 20260903081735 | 62 | 192 | 0.0 | 12.9 | 0.00 | 0.00 | 0.00 | 100 | 1013.2 |
| 20260903081235 | 62 | 154 | 8.0 | 12.9 | 0.00 | 0.00 | 0.00 | 100 | 1013.1 |
| 20260903081007 | 62 | 168 | 0.0 | 14.5 | 0.00 | 0.00 | 0.00 | 100 | 1013.1 |
| 20260903080229 | 62 | 168 | 9.7 | 14.5 | 0.00 | 0.00 | 0.00 | 100 | 1013.1 |
| 20260903075729 | 62 | 151 | 8.0 | 14.5 | 0.00 | 0.00 | 0.00 | 100 | 1013.2 |
| 20260903075230 | 62 | 188 | 3.2 | 9.7 | 0.00 | 0.00 | 0.00 | 100 | 1013.2 |
| 20260903074710 | 62 | 151 | 0.0 | 11.3 | 0.00 | 0.00 | 0.00 | 100 | 1013.2 |
| 20260903074156 | 62 | 168 | 8.0 | 11.3 | 0.00 | 0.00 | 0.00 | 100 | 1013.3 |
| 20260903073656 | 62 | 154 | 3.2 | 16.1 | 0.00 | 0.00 | 0.00 | 100 | 1013.3 |
| 20260903073150 | 62 | 210 | 6.4 | 16.1 | 0.00 | 0.00 | 0.00 | 100 | 1013.4 |
| 20260903072629 | 62 | 161 | 8.0 | 12.9 | 0.00 | 0.00 | 0.00 | 100 | 1013.3 |
| 20260903072128 | 62 | 150 | 6.4 | 11.3 | 0.00 | 0.00 | 0.00 | 100 | 1013.4 |
| 20260903071630 | 62 | 113 | 4.8 | 14.5 | 0.00 | 0.00 | 0.00 | 100 | 1013.4 |
| 20260903071109 | 62 | 101 | 0.0 | 14.5 | 0.00 | 0.00 | 0.00 | 100 | 1013.5 |
| 20260903070834 | 62 | 170 | 8.0 | 12.9 | 0.00 | 0.00 | 0.00 | 100 | 1013.4 |
| 20260903065601 | 62 | 158 | 6.4 | 16.1 | 0.00 | 0.00 | 0.00 | 100 | 1013.4 |
| 20260903065331 | 62 | 163 | 8.0 | 14.5 | 0.00 | 0.00 | 0.00 | 100 | 1013.4 |
| 20260903064600 | 62 | 151 | 6.4 | 14.5 | 0.00 | 0.00 | 0.00 | 100 | 1013.4 |
| 20260903064100 | 62 | 135 | 0.0 | 9.7 | 0.00 | 0.00 | 0.00 | 100 | 1013.5 |
| 20260903063553 | 62 | 189 | 0.0 | 12.9 | 0.00 | 0.00 | 0.00 | 100 | 1013.5 |
| 20260903063041 | 62 | 195 | 3.2 | 19.3 | 0.00 | 0.00 | 0.00 | 100 | 1013.5 |
| 20260903062541 | 62 | 198 | 0.0 | 19.3 | 0.00 | 0.00 | 0.00 | 100 | 1013.5 |
| 20260903062036 | 62 | 195 | 6.4 | 16.1 | 0.00 | 0.00 | 0.00 | 100 | 1013.5 |
| 20260903061535 | 62 | 163 | 4.8 | 14.5 | 0.00 | 0.00 | 0.00 | 100 | 1013.5 |
| 20260903061035 | 62 | 135 | 9.7 | 16.1 | 0.00 | 0.00 | 0.00 | 100 | 1013.5 |
| 20260903060539 | 62 | 151 | 9.7 | 14.5 | 0.00 | 0.00 | 0.00 | 100 | 1013.5 |
| 20260903060535 | 62 | 181 | 6.4 | 16.1 | 0.00 | 0.00 | 0.00 | 100 | 1013.6 |
| 20260903055534 | 62 | 142 | 8.0 | 16.1 | 0.00 | 0.00 | 0.00 | 100 | 1013.4 |
| 20260903055033 | 62 | 158 | 6.4 | 16.1 | 0.00 | 0.00 | 0.00 | 100 | 1013.4 |
| 20260903054530 | 62 | 133 | 9.7 | 16.1 | 0.00 | 0.00 | 0.00 | 100 | 1013.3 |
| 20260903054025 | 62 | 199 | 11.3 | 19.3 | 0.00 | 0.00 | 0.00 | 100 | 1013.3 |
| 20260903053525 | 62 | 150 | 9.7 | 19.3 | 0.00 | 0.00 | 0.00 | 100 | 1013.3 |
| 20260903053023 | 62 | 125 | 8.0 | 14.5 | 0.00 | 0.00 | 0.00 | 100 | 1013.3 |
| 20260903052519 | 62 | 167 | 3.2 | 22.5 | 0.00 | 0.00 | 0.00 | 100 | 1013.2 |
| 20260903052017 | 62 | 163 | 11.3 | 22.5 | 0.00 | 0.00 | 0.00 | 100 | 1013.3 |
| 20260903051746 | 62 | 151 | 9.7 | 16.1 | 0.00 | 0.00 | 0.00 | 100 | 1013.2 |
| 20260903051016 | 62 | 151 | 0.0 | 17.7 | 0.00 | 0.00 | 0.00 | 100 | 1013.2 |
| 20260903050747 | 62 | 170 | 8.0 | 17.7 | 0.00 | 0.00 | 0.00 | 100 | 1013.2 |
| 20260903050232 | 62 | 142 | 6.4 | 17.7 | 0.00 | 0.00 | 0.00 | 100 | 1013.1 |
| 20260903045501 | 62 | 178 | 8.0 | 17.7 | 0.00 | 0.00 | 0.00 | 100 | 1013.2 |
| 20260903045000 | 62 | 150 | 1.6 | 16.1 | 0.00 | 0.00 | 0.00 | 100 | 1013.1 |
| 20260903044501 | 62 | 139 | 4.8 | 16.1 | 0.00 | 0.00 | 0.00 | 100 | 1013.2 |
| 20260903043958 | 62 | 130 | 4.8 | 11.3 | 0.00 | 0.00 | 0.00 | 100 | 1013.1 |
| 20260903043456 | 62 | 150 | 6.4 | 11.3 | 0.00 | 0.00 | 0.00 | 100 | 1013.1 |
| 20260903043227 | 62 | 126 | 1.6 | 12.9 | 0.00 | 0.00 | 0.00 | 100 | 1013.1 |
| 20260903042456 | 62 | 154 | 3.2 | 12.9 | 0.00 | 0.00 | 0.00 | 100 | 1013.1 |
| 20260903041956 | 62 | 154 | 3.2 | 12.9 | 0.00 | 0.00 | 0.00 | 100 | 1013.1 |
| 20260903041443 | 62 | 160 | 0.0 | 12.9 | 0.00 | 0.00 | 0.00 | 100 | 1013.1 |
| 20260903040925 | 62 | 88 | 4.8 | 9.7 | 0.00 | 0.00 | 0.00 | 100 | 1013.1 |
| 20260903040404 | 62 | 158 | 0.0 | 8.0 | 0.00 | 0.00 | 0.00 | 100 | 1013.1 |
| 20260903035856 | 62 | 97 | 0.0 | 8.0 | 0.00 | 0.00 | 0.00 | 100 | 1013.0 |
| 20260903035350 | 62 | 151 | 1.6 | 8.0 | 0.00 | 0.00 | 0.00 | 100 | 1013.1 |
| 20260903034847 | 62 | 129 | 3.2 | 11.3 | 0.00 | 0.00 | 0.00 | 100 | 1013.0 |
| 20260903034342 | 62 | 39 | 3.2 | 12.9 | 0.00 | 0.00 | 0.00 | 100 | 1013.0 |
| 20260903034058 | 62 | 74 | 3.2 | 17.7 | 0.00 | 0.00 | 0.00 | 100 | 1013.1 |
| 20260903033328 | 62 | 97 | 9.7 | 17.7 | 0.00 | 0.00 | 0.00 | 100 | 1013.2 |
| 20260903032829 | 62 | 106 | 8.0 | 17.7 | 0.00 | 0.00 | 0.00 | 100 | 1013.0 |
| 20260903032325 | 63 | 139 | 4.8 | 17.7 | 0.00 | 0.00 | 0.00 | 100 | 1012.9 |
| 20260903031825 | 63 | 135 | 0.0 | 6.4 | 0.00 | 0.00 | 0.00 | 100 | 1012.5 |
| 20260903031326 | 63 | 111 | 0.0 | 6.4 | 0.00 | 0.00 | 0.00 | 100 | 1012.5 |
| 20260903030804 | 63 | 28 | 0.0 | 17.7 | 0.00 | 0.00 | 0.00 | 100 | 1012.3 |
| 20260903030256 | 63 | 28 | 0.0 | 17.7 | 0.00 | 0.00 | 0.00 | 100 | 1012.3 |
| 20260903025756 | 63 | 122 | 0.0 | 0.0 | 0.00 | 0.00 | 0.00 | 100 | 1012.4 |
| 20260903025518 | 63 | 122 | 0.0 | 0.0 | 0.00 | 0.00 | 0.00 | 100 | 1012.1 |
| 20260903024743 | 63 | 122 | 0.0 | 0.0 | 0.00 | 0.00 | 0.00 | 100 | 1012.2 |
| 20260903024232 | 63 | 122 | 0.0 | 0.0 | 0.00 | 0.00 | 0.00 | 100 | 1011.9 |
| 20260903023711 | 63 | 122 | 0.0 | 0.0 | 0.00 | 0.00 | 0.00 | 100 | 1011.8 |
| 20260903023147 | 63 | 122 | 0.0 | 0.0 | 0.00 | 0.00 | 0.00 | 100 | 1011.8 |
| 20260903022644 | 63 | 122 | 0.0 | 0.0 | 0.00 | 0.00 | 0.00 | 100 | 1011.7 |
| 20260903022143 | 63 | 122 | 0.0 | 0.0 | 0.00 | 0.00 | 0.00 | 100 | 1011.6 |
| 20260903021626 | 63 | 122 | 0.0 | 0.0 | 0.00 | 0.00 | 0.00 | 100 | 1011.5 |
| 20260903021124 | 63 | 122 | 0.0 | 0.0 | 0.00 | 0.00 | 0.00 | 100 | 1011.4 |
| 20260903020612 | 63 | 122 | 0.0 | 0.0 | 0.00 | 0.00 | 0.00 | 100 | 1011.4 |
| 20260903020337 | 63 | 122 | 0.0 | 0.0 | 0.00 | 0.00 | 0.00 | 100 | 1011.2 |
| 20260903015546 | 63 | 122 | 0.0 | 0.0 | 0.00 | 0.00 | 0.00 | 100 | 1011.2 |
| 20260903015037 | 63 | 122 | 0.0 | 0.0 | 0.00 | 0.00 | 0.00 | 100 | 1011.1 |
| 20260903014535 | 63 | 122 | 0.0 | 0.0 | 0.00 | 0.00 | 0.00 | 100 | 1011.1 |
| 20260903014025 | 63 | 122 | 0.0 | 0.0 | 0.00 | 0.00 | 0.00 | 100 | 1011.0 |
| 20260903013521 | 63 | 122 | 0.0 | 0.0 | 0.00 | 0.00 | 0.00 | 100 | 1010.9 |
| 20260903012958 | 63 | 122 | 0.0 | 0.0 | 0.00 | 0.00 | 0.00 | 100 | 1010.9 |
| 20260903012726 | 63 | 122 | 0.0 | 0.0 | 0.00 | 0.00 | 0.00 | 100 | 1011.0 |
| 20260903012222 | 63 | 122 | 0.0 | 8.0 | 0.00 | 0.00 | 0.00 | 100 | 1011.0 |
| 20260903011710 | 63 | 122 | 0.0 | 8.0 | 0.00 | 0.00 | 0.00 | 100 | 1011.0 |
| 20260903011210 | 63 | 16 | 0.0 | 0.0 | 0.00 | 0.00 | 0.00 | 100 | 1010.9 |
| 20260903010438 | 63 | 16 | 0.0 | 0.0 | 0.00 | 0.00 | 0.00 | 100 | 1010.9 |
| 20260903005915 | 63 | 16 | 0.0 | 0.0 | 0.00 | 0.00 | 0.00 | 100 | 1010.9 |
| 20260903005414 | 63 | 16 | 0.0 | 0.0 | 0.00 | 0.00 | 0.00 | 100 | 1011.0 |
| 20260903004859 | 63 | 16 | 0.0 | 0.0 | 0.00 | 0.00 | 0.00 | 100 | 1011.0 |
| 20260903004341 | 63 | 16 | 0.0 | 0.0 | 0.00 | 0.00 | 0.00 | 100 | 1011.0 |
| 20260903003838 | 63 | 16 | 0.0 | 0.0 | 0.00 | 0.00 | 0.00 | 100 | 1010.9 |
| 20260903003325 | 63 | 16 | 0.0 | 0.0 | 0.00 | 0.00 | 0.00 | 100 | 1010.9 |
| 20260903002817 | 63 | 16 | 0.0 | 0.0 | 0.00 | 0.00 | 0.00 | 100 | 1010.8 |
| 20260903002306 | 63 | 16 | 0.0 | 1.6 | 0.00 | 0.00 | 0.00 | 100 | 1010.9 |
| 20260903002028 | 63 | 16 | 0.0 | 8.0 | 0.00 | 0.00 | 0.00 | 100 | 1010.9 |